Pope Field Airport, NC

1:16 PM EST on November 20, 2017 (GMT -0500)
Pope Field Airport

Weather History for KPOB - October, 2013

Change the Weather History Date:

Saturday, October 26, 2013

  Actual Average Record
Temperature  
Mean Temperature 46 °F -  
Max Temperature 62 °F 71 °F 83 °F (1978)
Min Temperature 30 °F 49 °F 30 °F (2013)
Degree Days  
Heating Degree Days 20    
Moisture  
Dew Point 32 °F    
Average Humidity 64    
Maximum Humidity 92    
Minimum Humidity 30    
Precipitation  
Precipitation 0.00 in - - ()
Sea Level Pressure  
Sea Level Pressure 30.25 in    
Wind  
Wind Speed 3 mph (WSW)    
Max Wind Speed 10 mph    
Max Gust Speed -    
Visibility 10 miles    
Events      
Averages and records for this station are not official NWS values.
T = Trace of Precipitation, MM = Missing Value Source: NWS Daily Summary

Daily Weather History Graph

Daily Weather History Graph

Search for Another Location

Airport or City:

Trip Planner

Search our weather history database for the weather conditions in past years. The results will help you decide how hot, cold, wet, or windy it might be!

Date:

Astronomy

Oct. 26, 2013 Rise Set
Actual Time 7:31 AM EDT 6:27 PM EDT
Civil Twilight 7:05 AM EDT 6:53 PM EDT
Nautical Twilight 6:36 AM EDT 7:23 PM EDT
Astronomical Twilight 6:06 AM EDT 7:52 PM EDT
Moon No Moon Rise 1:45 PM EDT (10/26)
Length of Visible Light 11h 47m
Length of Day
10h 55m
Waning Gibbous, 53% of the Moon is Illuminated
Oct 26
Waning Gibbous
Oct 26
Last Quarter
Nov 3
New
Nov 10
First Quarter
Nov 17
Full

Hourly Weather History & Observations

Time (EDT) Temp. Windchill Dew Point Humidity Pressure Visibility Wind Dir Wind Speed Gust Speed Precip Events Conditions
12:58 AM 35.8 °F - 32.2 °F 87% 30.38 in 10.0 mi West 2.3 mph - N/A   Clear
1:58 AM 34.7 °F - 31.3 °F 87% 30.36 in 10.0 mi WNW 2.3 mph - N/A   Clear
2:58 AM 34.0 °F - 30.6 °F 87% 30.35 in 10.0 mi West 2.3 mph - N/A   Clear
3:58 AM 33.3 °F - 29.8 °F 87% 30.35 in 10.0 mi NNW 1.2 mph - N/A   Clear
4:58 AM 32.0 °F - 29.3 °F 90% 30.33 in 10.0 mi Calm Calm - N/A   Clear
5:58 AM 31.1 °F - 28.8 °F 91% 30.33 in 10.0 mi NW 2.3 mph - N/A   Clear
6:58 AM 30.9 °F - 28.4 °F 90% 30.34 in 10.0 mi Calm Calm - N/A   Clear
7:58 AM 30.6 °F - 28.4 °F 92% 30.35 in 10.0 mi Calm Calm - N/A   Clear
8:58 AM 35.2 °F - 30.9 °F 84% 30.37 in 10.0 mi NW 1.2 mph - N/A   Clear
9:58 AM 41.7 °F - 32.9 °F 71% 30.35 in 10.0 mi Variable 1.2 mph - N/A   Clear
10:58 AM 49.3 °F - 32.0 °F 51% 30.33 in 10.0 mi ESE 2.3 mph - N/A   Clear
11:58 AM 55.8 °F - 29.8 °F 37% 30.30 in 10.0 mi SW 4.6 mph - N/A   Clear
12:58 PM 58.8 °F - 28.8 °F 32% 30.27 in 10.0 mi SW 6.9 mph - N/A   Clear
1:58 PM 60.4 °F - 28.9 °F 30% 30.23 in 10.0 mi West 10.4 mph - N/A   Clear
2:58 PM 61.2 °F - 29.7 °F 30% 30.19 in 10.0 mi Variable 5.8 mph - N/A   Clear
3:58 PM 61.5 °F - 29.3 °F 30% 30.16 in 10.0 mi West 10.4 mph - N/A   Clear
4:58 PM 61.0 °F - 30.0 °F 31% 30.14 in 10.0 mi WSW 10.4 mph - N/A   Clear
5:58 PM 58.3 °F - 31.3 °F 36% 30.13 in 10.0 mi WSW 5.8 mph - N/A   Clear
6:58 PM 50.7 °F - 34.2 °F 53% 30.14 in 10.0 mi WSW 4.6 mph - N/A   Clear
7:58 PM 48.4 °F - 37.2 °F 65% 30.14 in 10.0 mi SW 5.8 mph - N/A   Clear
8:58 PM 52.7 °F - 33.4 °F 48% 30.12 in 10.0 mi WSW 6.9 mph - N/A   Clear
9:58 PM 45.0 °F 41.8 °F 36.9 °F 73% 30.12 in 10.0 mi WSW 5.8 mph - N/A   Clear
10:58 PM 42.6 °F 37.8 °F 37.2 °F 81% 30.13 in 10.0 mi WSW 8.1 mph - N/A   Clear
11:58 PM 47.1 °F - 35.4 °F 64% 30.12 in 10.0 mi WSW 6.9 mph - N/A   Partly Cloudy